Total_Precipitation_Accumulation
0.03 0.06 0.06 0.09 0.09 0.12 0.15 0.18 0.21 0.22 0.21 0.26 0.29 0.41 0.58 0.77 0.78 0.82 0.95 1.04 1.02 1.12 1.26 1.55 2.06 2.75 3.23 3.41 3.45 3.61 3.56 3.57 3.57 3.49 3.51 3.70 3.82 3.84 3.79 3.89 3.93 3.79 3.69 3.74
0.05 0.06 0.07 0.08 0.10 0.12 0.18 0.21 0.23 0.25 0.23 0.24 0.33 0.47 0.64 0.75 0.77 0.84 0.98 0.99 0.97 0.99 1.18 1.58 1.99 2.41 2.82 3.17 3.30 3.44 3.43 3.63 3.87 4.19 4.62 4.87 4.99 4.91 4.78 4.72 4.61 4.44 4.32 4.27
0.05 0.04 0.03 0.04 0.09 0.12 0.18 0.16 0.22 0.30 0.32 0.28 0.39 0.68 0.78 0.84 0.95 1.07 1.14 1.20 1.21 1.09 1.25 1.58 1.79 2.10 2.42 2.78 3.02 3.18 3.43 3.88 4.37 4.95 5.69 6.05 5.84 5.47 5.28 5.00 4.90 4.70 4.45 4.37
0.02 0.02 0.03 0.05 0.07 0.10 0.14 0.12 0.17 0.24 0.30 0.33 0.34 0.72 0.97 1.03 1.23 1.39 1.29 1.23 1.26 1.27 1.32 1.47 1.64 1.86 2.09 2.47 2.87 3.20 3.61 4.18 4.81 5.32 5.82 6.11 6.05 5.78 5.51 5.07 4.69 4.33 4.01 3.82
0.03 0.04 0.08 0.12 0.08 0.08 0.09 0.10 0.13 0.18 0.22 0.29 0.33 0.56 1.03 1.26 1.36 1.49 1.36 1.29 1.22 1.24 1.19 1.29 1.41 1.60 1.91 2.33 2.77 3.20 3.59 4.18 4.74 5.25 5.64 5.88 5.92 5.78 5.41 4.76 4.17 3.80 3.48 3.23
0.04 0.05 0.10 0.10 0.07 0.07 0.09 0.10 0.14 0.20 0.24 0.35 0.34 0.54 1.14 1.50 1.58 1.53 1.46 1.42 1.28 1.20 1.17 1.16 1.28 1.43 1.81 2.14 2.60 2.96 3.28 3.96 4.67 5.20 5.56 5.80 5.81 5.53 4.92 4.28 3.75 3.43 3.16 2.90
0.10 0.10 0.10 0.08 0.09 0.09 0.12 0.17 0.32 0.40 0.46 0.48 0.38 0.60 1.13 1.27 1.30 1.37 1.32 1.24 1.20 1.14 1.07 1.11 1.28 1.33 1.61 1.96 2.30 2.63 2.99 3.46 3.97 4.40 4.65 4.82 4.88 4.65 4.28 3.92 3.49 3.14 2.91 2.64
0.22 0.19 0.12 0.08 0.07 0.07 0.11 0.18 0.41 0.56 0.58 0.57 0.60 1.02 1.43 1.29 1.24 1.28 1.30 1.15 1.12 1.16 1.10 1.13 1.27 1.32 1.40 1.64 1.94 2.33 2.62 2.92 3.18 3.36 3.53 3.50 3.49 3.47 3.36 3.04 2.65 2.35 2.10 1.94
0.22 0.21 0.11 0.06 0.04 0.05 0.09 0.16 0.18 0.31 0.37 0.59 0.88 1.18 1.57 1.50 1.49 1.33 1.25 1.20 1.17 1.13 1.11 1.17 1.27 1.29 1.34 1.47 1.70 1.93 2.06 2.25 2.29 2.24 2.27 2.33 2.37 2.37 2.31 2.18 1.91 1.59 1.37 1.26
0.18 0.17 0.13 0.08 0.07 0.07 0.10 0.15 0.21 0.42 0.61 0.80 0.99 1.48 1.98 2.00 1.84 1.58 1.32 1.19 1.07 1.07 1.12 1.18 1.26 1.37 1.41 1.42 1.60 1.72 1.68 1.66 1.71 1.75 1.72 1.68 1.70 1.73 1.73 1.67 1.52 1.33 1.14 1.00
0.16 0.18 0.16 0.12 0.15 0.16 0.16 0.19 0.23 0.39 0.52 0.87 1.20 1.79 1.90 2.06 1.98 1.83 1.70 1.35 1.11 1.08 1.11 1.23 1.25 1.25 1.24 1.22 1.26 1.30 1.35 1.39 1.39 1.36 1.38 1.37 1.30 1.27 1.27 1.31 1.27 1.15 1.02 0.89
0.19 0.19 0.27 0.22 0.19 0.17 0.18 0.21 0.28 0.51 0.61 0.68 1.06 1.82 1.69 2.03 2.11 1.90 1.75 1.45 1.28 1.17 1.19 1.21 1.21 1.14 1.10 1.10 1.12 1.11 1.14 1.15 1.17 1.17 1.17 1.16 1.06 1.02 1.01 0.99 1.00 0.95 0.93 0.89
0.18 0.26 0.45 0.55 0.50 0.33 0.26 0.22 0.25 0.32 0.50 0.65 1.04 1.80 1.82 1.96 2.06 1.80 1.59 1.49 1.43 1.38 1.40 1.40 1.31 1.16 1.03 1.01 1.03 0.98 0.95 0.94 0.88 0.90 0.93 0.99 0.94 0.89 0.88 0.82 0.82 0.86 0.86 0.85
0.15 0.35 0.64 1.01 0.90 0.51 0.37 0.27 0.24 0.33 0.57 0.70 0.94 1.42 1.68 1.81 1.76 1.66 1.60 1.51 1.51 1.49 1.38 1.33 1.29 1.19 1.12 1.01 0.94 0.88 0.85 0.83 0.79 0.75 0.73 0.79 0.84 0.81 0.77 0.76 0.75 0.73 0.74 0.75
0.19 0.37 0.44 0.39 0.33 0.34 0.36 0.32 0.31 0.38 0.48 0.74 0.99 1.28 1.54 1.77 1.82 1.81 1.69 1.58 1.53 1.51 1.46 1.45 1.36 1.23 1.20 1.12 1.01 0.91 0.85 0.81 0.77 0.78 0.78 0.77 0.76 0.71 0.71 0.74 0.73 0.66 0.64 0.60
0.21 0.30 0.37 0.38 0.32 0.34 0.40 0.40 0.39 0.43 0.54 0.74 1.01 1.39 1.65 1.87 1.92 1.82 1.67 1.59 1.66 1.62 1.52 1.42 1.31 1.26 1.24 1.17 1.09 0.96 0.88 0.81 0.80 0.88 0.90 0.85 0.81 0.76 0.72 0.71 0.70 0.65 0.63 0.60
0.25 0.38 0.60 0.57 0.42 0.55 0.85 0.71 0.65 0.68 0.70 0.89 1.15 1.38 1.57 1.80 1.90 1.87 1.75 1.76 1.85 1.75 1.74 1.65 1.47 1.37 1.38 1.25 1.10 1.00 0.93 0.90 0.90 0.90 0.86 0.86 0.85 0.78 0.69 0.63 0.66 0.64 0.63 0.58
0.32 0.49 0.70 0.68 0.81 1.27 1.16 0.68 0.67 0.79 0.74 0.74 0.91 1.05 1.24 1.44 1.53 1.59 1.65 1.76 1.88 1.83 1.79 1.69 1.56 1.48 1.41 1.30 1.18 1.07 0.99 0.91 0.86 0.85 0.81 0.77 0.78 0.77 0.68 0.65 0.65 0.60 0.61 0.61
0.26 0.53 0.85 0.91 1.14 1.31 1.12 0.72 0.61 0.87 1.08 0.81 0.77 0.87 1.00 1.03 1.25 1.53 1.50 1.50 1.64 1.68 1.65 1.58 1.51 1.51 1.41 1.27 1.14 1.05 0.97 0.86 0.77 0.76 0.74 0.66 0.61 0.59 0.57 0.55 0.58 0.60 0.62 0.64
0.28 0.50 0.89 1.07 1.39 1.57 1.23 0.60 0.50 0.87 1.46 1.00 0.90 0.90 1.07 1.15 1.42 1.46 1.25 1.24 1.35 1.41 1.39 1.36 1.32 1.30 1.29 1.19 1.08 1.01 0.95 0.85 0.70 0.60 0.52 0.51 0.51 0.50 0.54 0.56 0.59 0.56 0.60 0.65
0.63 0.73 0.91 1.14 1.54 1.49 0.79 0.43 0.58 1.33 1.51 1.01 1.00 1.05 1.09 1.19 1.24 1.11 1.02 1.17 1.30 1.29 1.27 1.18 1.12 1.10 1.07 1.00 0.89 0.83 0.80 0.70 0.50 0.40 0.39 0.42 0.43 0.44 0.45 0.54 0.57 0.55 0.53 0.57
0.96 1.13 1.22 1.34 1.60 1.56 0.68 0.54 0.94 1.16 0.85 0.86 0.94 0.93 0.94 0.86 0.81 0.88 0.96 1.14 1.23 1.25 1.22 1.10 1.01 0.92 0.85 0.77 0.77 0.73 0.63 0.47 0.36 0.35 0.36 0.38 0.37 0.32 0.34 0.48 0.51 0.51 0.55 0.52
1.05 1.27 1.35 1.47 1.56 1.16 0.66 0.62 0.66 0.70 0.75 0.75 0.80 0.79 0.78 0.79 0.79 0.86 0.97 1.06 1.15 1.11 1.03 0.90 0.79 0.72 0.66 0.68 0.69 0.62 0.49 0.37 0.31 0.36 0.40 0.38 0.33 0.32 0.32 0.39 0.42 0.42 0.49 0.48
1.14 1.08 1.13 1.21 1.20 0.94 0.74 0.62 0.56 0.59 0.64 0.63 0.68 0.75 0.79 0.83 0.85 0.89 0.94 0.95 0.99 0.95 0.84 0.71 0.66 0.65 0.65 0.64 0.54 0.47 0.35 0.33 0.36 0.43 0.42 0.38 0.39 0.37 0.31 0.31 0.29 0.29 0.33 0.35
1.01 1.17 1.33 1.33 1.24 1.05 0.87 0.67 0.61 0.62 0.66 0.69 0.75 0.77 0.75 0.79 0.84 0.87 0.86 0.82 0.80 0.75 0.68 0.59 0.59 0.59 0.59 0.51 0.43 0.37 0.32 0.31 0.39 0.40 0.35 0.32 0.32 0.31 0.30 0.24 0.19 0.18 0.19 0.20
0.74 1.06 1.42 1.44 1.16 1.07 1.00 0.86 0.74 0.79 0.88 0.85 0.77 0.75 0.72 0.69 0.66 0.61 0.59 0.59 0.60 0.59 0.52 0.48 0.46 0.44 0.41 0.37 0.35 0.31 0.27 0.25 0.32 0.36 0.34 0.29 0.27 0.25 0.21 0.22 0.21 0.15 0.15 0.16